QPF
0.00 0.00 0.00 0.00 0.00 0.00 0.00 0.00 0.00 0.00 0.00 0.00 0.00 0.00 0.00 0.00 0.00 0.00 0.00 0.00 0.00 0.00 0.00 0.00 0.00 0.00 0.00 0.01 0.02 0.06 0.09 0.09 0.08 0.09 0.07 0.06 0.06 0.05 0.05 0.06 0.07 0.08 0.10 0.17
0.00 0.00 0.00 0.00 0.00 0.00 0.00 0.00 0.00 0.00 0.00 0.00 0.00 0.00 0.00 0.00 0.00 0.00 0.00 0.00 0.00 0.00 0.00 0.00 0.00 0.00 0.00 0.00 0.00 0.01 0.02 0.03 0.03 0.03 0.03 0.03 0.02 0.02 0.01 0.01 0.02 0.02 0.04 0.08
0.00 0.00 0.00 0.00 0.00 0.00 0.00 0.00 0.00 0.00 0.00 0.00 0.00 0.00 0.00 0.00 0.00 0.00 0.01 0.01 0.01 0.01 0.01 0.00 0.00 0.00 0.00 0.00 0.00 0.00 0.00 0.00 0.00 0.01 0.01 0.01 0.01 0.00 0.00 0.00 0.00 0.01 0.01 0.03
0.00 0.00 0.00 0.00 0.00 0.00 0.00 0.00 0.00 0.00 0.00 0.00 0.00 0.00 0.00 0.00 0.00 0.01 0.02 0.02 0.02 0.01 0.01 0.00 0.00 0.00 0.00 0.00 0.00 0.00 0.00 0.00 0.00 0.00 0.00 0.00 0.00 0.00 0.00 0.00 0.00 0.00 0.01 0.02
0.00 0.00 0.00 0.00 0.00 0.00 0.00 0.00 0.00 0.00 0.00 0.00 0.00 0.00 0.00 0.02 0.02 0.03 0.03 0.04 0.03 0.01 0.00 0.00 0.00 0.00 0.00 0.00 0.00 0.00 0.00 0.00 0.00 0.00 0.00 0.00 0.00 0.00 0.00 0.00 0.00 0.00 0.01 0.01
0.00 0.00 0.00 0.00 0.00 0.00 0.00 0.00 0.00 0.00 0.00 0.00 0.01 0.01 0.01 0.02 0.03 0.02 0.02 0.02 0.01 0.00 0.00 0.00 0.00 0.00 0.00 0.00 0.00 0.00 0.00 0.00 0.00 0.00 0.00 0.00 0.00 0.00 0.00 0.00 0.00 0.01 0.01 0.01
0.00 0.01 0.01 0.00 0.00 0.00 0.00 0.00 0.00 0.00 0.00 0.00 0.00 0.01 0.01 0.01 0.02 0.03 0.04 0.02 0.01 0.00 0.00 0.00 0.00 0.00 0.00 0.00 0.00 0.00 0.00 0.00 0.00 0.00 0.00 0.00 0.00 0.00 0.01 0.01 0.01 0.01 0.01 0.02
0.00 0.01 0.01 0.00 0.00 0.00 0.00 0.00 0.00 0.00 0.00 0.00 0.00 0.01 0.01 0.01 0.02 0.02 0.02 0.01 0.00 0.00 0.00 0.00 0.00 0.00 0.00 0.00 0.00 0.00 0.00 0.00 0.00 0.00 0.00 0.00 0.00 0.00 0.01 0.01 0.01 0.02 0.02 0.03
0.00 0.00 0.00 0.00 0.00 0.00 0.00 0.00 0.00 0.00 0.00 0.00 0.00 0.00 0.01 0.01 0.01 0.01 0.01 0.00 0.00 0.00 0.00 0.00 0.00 0.00 0.00 0.00 0.00 0.00 0.00 0.00 0.00 0.00 0.00 0.00 0.00 0.00 0.00 0.00 0.01 0.01 0.02 0.03
0.00 0.00 0.00 0.00 0.00 0.00 0.00 0.00 0.00 0.00 0.00 0.00 0.00 0.00 0.00 0.01 0.01 0.01 0.00 0.00 0.00 0.00 0.00 0.00 0.00 0.00 0.00 0.00 0.00 0.00 0.00 0.00 0.00 0.00 0.00 0.00 0.00 0.00 0.00 0.00 0.00 0.01 0.02 0.03
0.00 0.00 0.00 0.00 0.00 0.00 0.00 0.00 0.00 0.00 0.01 0.00 0.00 0.00 0.00 0.01 0.01 0.00 0.00 0.00 0.00 0.00 0.00 0.00 0.00 0.00 0.00 0.00 0.00 0.00 0.00 0.00 0.00 0.00 0.00 0.00 0.00 0.00 0.00 0.00 0.00 0.01 0.01 0.02
0.00 0.00 0.00 0.00 0.00 0.00 0.01 0.01 0.01 0.00 0.00 0.00 0.00 0.00 0.00 0.00 0.00 0.00 0.00 0.00 0.00 0.00 0.00 0.00 0.00 0.00 0.00 0.00 0.00 0.00 0.00 0.00 0.00 0.00 0.00 0.00 0.00 0.00 0.00 0.00 0.00 0.01 0.02 0.03
0.00 0.00 0.00 0.00 0.00 0.00 0.00 0.00 0.00 0.01 0.00 0.00 0.01 0.00 0.00 0.00 0.00 0.00 0.00 0.00 0.00 0.00 0.00 0.00 0.00 0.00 0.00 0.00 0.00 0.00 0.00 0.00 0.00 0.00 0.00 0.00 0.00 0.00 0.00 0.00 0.00 0.01 0.02 0.04
0.00 0.00 0.00 0.00 0.00 0.00 0.00 0.00 0.00 0.00 0.00 0.00 0.00 0.00 0.00 0.00 0.00 0.00 0.00 0.00 0.00 0.00 0.00 0.00 0.00 0.00 0.00 0.00 0.00 0.00 0.00 0.00 0.00 0.01 0.01 0.01 0.00 0.00 0.00 0.00 0.00 0.01 0.03 0.05
0.00 0.00 0.00 0.00 0.00 0.00 0.00 0.00 0.00 0.00 0.00 0.00 0.00 0.00 0.00 0.00 0.00 0.00 0.00 0.00 0.00 0.00 0.00 0.00 0.00 0.00 0.00 0.00 0.00 0.00 0.00 0.00 0.01 0.01 0.01 0.01 0.00 0.00 0.00 0.00 0.00 0.01 0.03 0.06
0.00 0.00 0.00 0.00 0.00 0.00 0.00 0.00 0.00 0.00 0.00 0.00 0.00 0.00 0.00 0.00 0.00 0.00 0.00 0.00 0.00 0.00 0.00 0.00 0.00 0.00 0.00 0.00 0.00 0.00 0.00 0.00 0.01 0.01 0.02 0.02 0.01 0.00 0.00 0.00 0.00 0.00 0.01 0.03
0.00 0.00 0.00 0.00 0.00 0.00 0.00 0.00 0.00 0.00 0.00 0.00 0.00 0.00 0.00 0.01 0.01 0.00 0.00 0.00 0.00 0.00 0.00 0.00 0.00 0.00 0.00 0.00 0.00 0.00 0.00 0.00 0.00 0.01 0.01 0.02 0.01 0.01 0.00 0.00 0.00 0.00 0.00 0.01
0.00 0.00 0.00 0.00 0.00 0.00 0.00 0.00 0.00 0.01 0.01 0.01 0.01 0.01 0.01 0.01 0.01 0.00 0.00 0.00 0.00 0.00 0.00 0.00 0.00 0.01 0.01 0.01 0.01 0.01 0.01 0.01 0.01 0.01 0.02 0.02 0.01 0.01 0.00 0.00 0.00 0.00 0.00 0.00
0.00 0.00 0.00 0.00 0.00 0.00 0.00 0.01 0.02 0.02 0.01 0.01 0.02 0.02 0.02 0.01 0.01 0.01 0.00 0.00 0.00 0.00 0.01 0.01 0.01 0.02 0.02 0.02 0.02 0.02 0.02 0.02 0.03 0.03 0.03 0.02 0.02 0.01 0.00 0.00 0.00 0.00 0.00 0.00
0.00 0.00 0.00 0.00 0.01 0.01 0.01 0.02 0.04 0.03 0.04 0.02 0.02 0.02 0.01 0.01 0.01 0.01 0.00 0.00 0.01 0.01 0.01 0.01 0.01 0.01 0.02 0.02 0.03 0.04 0.05 0.06 0.07 0.07 0.05 0.04 0.02 0.01 0.00 0.00 0.01 0.01 0.01 0.00
0.00 0.00 0.01 0.02 0.04 0.04 0.02 0.03 0.03 0.05 0.06 0.02 0.01 0.01 0.01 0.01 0.02 0.01 0.01 0.01 0.01 0.01 0.01 0.01 0.02 0.02 0.03 0.04 0.05 0.08 0.10 0.14 0.14 0.11 0.09 0.06 0.04 0.02 0.01 0.01 0.01 0.01 0.00 0.00
0.00 0.01 0.01 0.02 0.04 0.06 0.02 0.01 0.02 0.01 0.01 0.01 0.01 0.02 0.02 0.02 0.01 0.01 0.01 0.01 0.00 0.00 0.01 0.01 0.02 0.02 0.04 0.06 0.10 0.16 0.20 0.22 0.20 0.16 0.13 0.10 0.07 0.04 0.02 0.01 0.02 0.02 0.01 0.01
0.00 0.02 0.04 0.03 0.03 0.01 0.00 0.00 0.00 0.01 0.01 0.02 0.02 0.02 0.01 0.01 0.01 0.01 0.01 0.01 0.00 0.00 0.01 0.01 0.01 0.02 0.04 0.10 0.21 0.31 0.32 0.30 0.26 0.22 0.17 0.14 0.12 0.08 0.05 0.02 0.01 0.02 0.01 0.00
0.00 0.01 0.02 0.02 0.01 0.00 0.00 0.00 0.00 0.00 0.01 0.01 0.01 0.00 0.00 0.00 0.00 0.00 0.00 0.00 0.00 0.00 0.01 0.01 0.01 0.02 0.03 0.10 0.26 0.38 0.39 0.35 0.29 0.23 0.19 0.16 0.14 0.11 0.08 0.06 0.02 0.01 0.00 0.00
0.00 0.00 0.00 0.01 0.00 0.00 0.00 0.00 0.00 0.00 0.00 0.00 0.00 0.00 0.00 0.00 0.00 0.00 0.00 0.00 0.00 0.01 0.01 0.01 0.01 0.02 0.02 0.06 0.19 0.34 0.39 0.39 0.35 0.28 0.23 0.20 0.16 0.13 0.09 0.08 0.05 0.02 0.01 0.01
0.00 0.00 0.00 0.00 0.00 0.00 0.00 0.00 0.00 0.00 0.00 0.00 0.00 0.00 0.00 0.00 0.00 0.00 0.00 0.00 0.00 0.00 0.01 0.01 0.01 0.01 0.01 0.03 0.10 0.25 0.38 0.44 0.41 0.37 0.30 0.24 0.19 0.14 0.10 0.07 0.05 0.03 0.02 0.01
MSLP
1012.76 1013.35 1013.76 1013.98 1014.05 1014.01 1013.90 1013.75 1013.58 1013.39 1013.15 1012.86 1012.51 1012.11 1011.69 1011.29 1010.95 1010.70 1010.56 1010.52 1010.56 1010.63 1010.71 1010.74 1010.72 1010.66 1010.56 1010.47 1010.43 1010.44 1010.54 1010.70 1010.89 1011.07 1011.20 1011.24 1011.17 1010.98 1010.70 1010.36 1010.00 1009.66 1009.38 1009.17
1013.07 1013.48 1013.73 1013.83 1013.85 1013.84 1013.84 1013.87 1013.91 1013.93 1013.89 1013.74 1013.46 1013.06 1012.57 1012.05 1011.56 1011.17 1010.91 1010.79 1010.78 1010.84 1010.93 1010.98 1010.98 1010.91 1010.79 1010.66 1010.55 1010.51 1010.56 1010.69 1010.87 1011.06 1011.20 1011.25 1011.18 1010.97 1010.65 1010.24 1009.81 1009.38 1009.01 1008.72
1013.12 1013.36 1013.46 1013.48 1013.49 1013.56 1013.72 1013.97 1014.27 1014.54 1014.71 1014.71 1014.50 1014.09 1013.51 1012.85 1012.19 1011.62 1011.20 1010.95 1010.86 1010.89 1010.97 1011.04 1011.06 1011.01 1010.89 1010.74 1010.60 1010.52 1010.53 1010.63 1010.80 1010.99 1011.14 1011.21 1011.15 1010.95 1010.61 1010.17 1009.67 1009.18 1008.74 1008.37
1012.99 1013.06 1013.04 1013.02 1013.08 1013.27 1013.64 1014.14 1014.71 1015.24 1015.63 1015.77 1015.62 1015.17 1014.49 1013.65 1012.79 1012.00 1011.39 1010.98 1010.79 1010.76 1010.82 1010.91 1010.96 1010.94 1010.85 1010.70 1010.56 1010.46 1010.45 1010.52 1010.68 1010.86 1011.03 1011.11 1011.08 1010.89 1010.56 1010.12 1009.60 1009.06 1008.56 1008.12
1012.79 1012.73 1012.63 1012.61 1012.74 1013.09 1013.67 1014.42 1015.25 1016.02 1016.59 1016.84 1016.73 1016.23 1015.41 1014.39 1013.31 1012.30 1011.48 1010.90 1010.57 1010.47 1010.51 1010.61 1010.70 1010.73 1010.68 1010.57 1010.44 1010.34 1010.32 1010.38 1010.52 1010.70 1010.87 1010.98 1010.98 1010.83 1010.53 1010.10 1009.58 1009.01 1008.46 1007.95
1012.65 1012.50 1012.37 1012.37 1012.59 1013.09 1013.86 1014.83 1015.87 1016.82 1017.52 1017.84 1017.72 1017.15 1016.20 1015.00 1013.70 1012.48 1011.45 1010.70 1010.25 1010.07 1010.09 1010.20 1010.34 1010.42 1010.43 1010.37 1010.28 1010.19 1010.16 1010.21 1010.34 1010.52 1010.71 1010.84 1010.88 1010.77 1010.51 1010.11 1009.60 1009.02 1008.43 1007.85
1012.68 1012.47 1012.33 1012.38 1012.69 1013.31 1014.21 1015.33 1016.50 1017.54 1018.31 1018.64 1018.49 1017.83 1016.76 1015.40 1013.93 1012.53 1011.34 1010.45 1009.89 1009.65 1009.64 1009.78 1009.95 1010.09 1010.16 1010.15 1010.10 1010.04 1010.01 1010.06 1010.18 1010.36 1010.56 1010.72 1010.79 1010.74 1010.53 1010.17 1009.67 1009.09 1008.45 1007.80
1012.93 1012.70 1012.58 1012.66 1013.02 1013.70 1014.67 1015.84 1017.04 1018.09 1018.84 1019.14 1018.92 1018.19 1017.02 1015.56 1013.98 1012.47 1011.18 1010.20 1009.58 1009.29 1009.27 1009.42 1009.62 1009.81 1009.93 1009.96 1009.94 1009.89 1009.87 1009.91 1010.03 1010.21 1010.41 1010.60 1010.72 1010.72 1010.56 1010.24 1009.77 1009.18 1008.51 1007.80
1013.36 1013.15 1013.05 1013.15 1013.53 1014.21 1015.15 1016.26 1017.40 1018.38 1019.04 1019.27 1018.98 1018.20 1016.99 1015.49 1013.89 1012.36 1011.05 1010.05 1009.41 1009.10 1009.07 1009.22 1009.43 1009.64 1009.77 1009.83 1009.81 1009.77 1009.74 1009.76 1009.87 1010.04 1010.26 1010.48 1010.64 1010.69 1010.59 1010.32 1009.88 1009.29 1008.60 1007.84
1013.88 1013.72 1013.65 1013.75 1014.10 1014.72 1015.56 1016.54 1017.53 1018.37 1018.91 1019.04 1018.70 1017.91 1016.73 1015.28 1013.75 1012.29 1011.03 1010.08 1009.46 1009.16 1009.12 1009.25 1009.44 1009.62 1009.73 1009.76 1009.72 1009.64 1009.58 1009.58 1009.66 1009.82 1010.05 1010.29 1010.50 1010.61 1010.57 1010.36 1009.97 1009.40 1008.71 1007.92
1014.38 1014.28 1014.24 1014.34 1014.63 1015.14 1015.82 1016.63 1017.42 1018.08 1018.48 1018.53 1018.18 1017.42 1016.34 1015.04 1013.67 1012.36 1011.24 1010.38 1009.82 1009.53 1009.47 1009.55 1009.67 1009.78 1009.81 1009.76 1009.65 1009.50 1009.38 1009.33 1009.37 1009.51 1009.73 1010.00 1010.25 1010.43 1010.46 1010.33 1010.00 1009.49 1008.83 1008.05
1014.73 1014.71 1014.71 1014.80 1015.03 1015.41 1015.93 1016.54 1017.14 1017.63 1017.91 1017.90 1017.57 1016.92 1016.00 1014.90 1013.75 1012.65 1011.70 1010.97 1010.48 1010.21 1010.11 1010.10 1010.12 1010.10 1010.01 1009.83 1009.60 1009.35 1009.13 1009.00 1008.98 1009.08 1009.29 1009.57 1009.87 1010.11 1010.24 1010.20 1009.97 1009.55 1008.96 1008.25
1014.90 1014.95 1014.99 1015.09 1015.26 1015.54 1015.92 1016.36 1016.80 1017.15 1017.35 1017.33 1017.06 1016.55 1015.83 1014.97 1014.07 1013.20 1012.45 1011.85 1011.42 1011.14 1010.98 1010.86 1010.73 1010.55 1010.29 1009.95 1009.57 1009.18 1008.84 1008.60 1008.50 1008.54 1008.73 1009.02 1009.35 1009.67 1009.89 1009.97 1009.87 1009.57 1009.10 1008.49
1014.88 1015.00 1015.10 1015.21 1015.36 1015.59 1015.87 1016.20 1016.52 1016.79 1016.95 1016.96 1016.78 1016.43 1015.92 1015.31 1014.65 1014.00 1013.42 1012.93 1012.54 1012.23 1011.98 1011.73 1011.44 1011.08 1010.63 1010.12 1009.56 1009.01 1008.53 1008.17 1007.97 1007.94 1008.08 1008.36 1008.72 1009.10 1009.43 1009.64 1009.69 1009.55 1009.23 1008.77
1014.74 1014.93 1015.09 1015.24 1015.41 1015.62 1015.87 1016.15 1016.42 1016.66 1016.83 1016.89 1016.82 1016.62 1016.30 1015.89 1015.43 1014.95 1014.50 1014.08 1013.70 1013.35 1012.99 1012.60 1012.15 1011.61 1010.99 1010.31 1009.59 1008.89 1008.27 1007.78 1007.46 1007.34 1007.42 1007.66 1008.03 1008.47 1008.89 1009.23 1009.44 1009.48 1009.35 1009.06
1014.62 1014.85 1015.07 1015.28 1015.50 1015.74 1016.01 1016.29 1016.58 1016.83 1017.03 1017.15 1017.17 1017.08 1016.90 1016.63 1016.30 1015.93 1015.55 1015.15 1014.75 1014.33 1013.87 1013.36 1012.77 1012.09 1011.33 1010.50 1009.66 1008.83 1008.08 1007.47 1007.04 1006.81 1006.81 1007.00 1007.35 1007.81 1008.30 1008.76 1009.12 1009.34 1009.40 1009.31
1014.61 1014.88 1015.15 1015.43 1015.72 1016.03 1016.35 1016.67 1016.99 1017.27 1017.50 1017.67 1017.74 1017.72 1017.60 1017.40 1017.12 1016.78 1016.40 1015.98 1015.53 1015.04 1014.49 1013.89 1013.20 1012.43 1011.59 1010.69 1009.76 1008.84 1008.00 1007.29 1006.75 1006.42 1006.31 1006.42 1006.73 1007.18 1007.72 1008.26 1008.75 1009.13 1009.37 1009.46
1014.83 1015.12 1015.43 1015.76 1016.12 1016.50 1016.88 1017.26 1017.61 1017.91 1018.16 1018.33 1018.40 1018.37 1018.25 1018.02 1017.72 1017.34 1016.91 1016.43 1015.92 1015.36 1014.76 1014.11 1013.38 1012.59 1011.73 1010.81 1009.86 1008.92 1008.03 1007.24 1006.61 1006.17 1005.96 1005.97 1006.20 1006.61 1007.15 1007.74 1008.32 1008.83 1009.22 1009.48
1015.31 1015.60 1015.93 1016.31 1016.71 1017.14 1017.56 1017.96 1018.32 1018.62 1018.84 1018.96 1018.98 1018.89 1018.68 1018.38 1017.98 1017.52 1017.00 1016.45 1015.87 1015.27 1014.64 1013.98 1013.28 1012.53 1011.72 1010.85 1009.94 1009.02 1008.12 1007.29 1006.59 1006.06 1005.73 1005.63 1005.76 1006.10 1006.59 1007.19 1007.81 1008.41 1008.92 1009.31
1016.03 1016.31 1016.64 1017.03 1017.44 1017.87 1018.29 1018.68 1019.01 1019.25 1019.40 1019.43 1019.34 1019.14 1018.81 1018.38 1017.86 1017.29 1016.67 1016.04 1015.40 1014.78 1014.16 1013.54 1012.91 1012.24 1011.53 1010.76 1009.94 1009.08 1008.21 1007.37 1006.62 1006.01 1005.58 1005.37 1005.38 1005.62 1006.04 1006.60 1007.23 1007.88 1008.47 1008.96
1016.91 1017.18 1017.49 1017.85 1018.23 1018.62 1018.98 1019.30 1019.54 1019.68 1019.72 1019.62 1019.40 1019.05 1018.58 1018.02 1017.37 1016.68 1015.98 1015.28 1014.61 1013.98 1013.39 1012.84 1012.30 1011.74 1011.16 1010.51 1009.80 1009.03 1008.22 1007.41 1006.64 1005.97 1005.45 1005.13 1005.02 1005.15 1005.48 1005.98 1006.59 1007.24 1007.88 1008.45
1017.86 1018.11 1018.38 1018.68 1018.98 1019.27 1019.53 1019.72 1019.83 1019.84 1019.73 1019.49 1019.12 1018.63 1018.03 1017.34 1016.59 1015.81 1015.03 1014.29 1013.60 1012.98 1012.44 1011.96 1011.52 1011.08 1010.62 1010.10 1009.51 1008.84 1008.10 1007.32 1006.55 1005.85 1005.26 1004.85 1004.64 1004.66 1004.89 1005.32 1005.88 1006.52 1007.18 1007.81
1018.78 1019.00 1019.21 1019.42 1019.60 1019.75 1019.86 1019.89 1019.84 1019.68 1019.42 1019.04 1018.55 1017.94 1017.23 1016.45 1015.62 1014.78 1013.96 1013.20 1012.51 1011.91 1011.41 1010.99 1010.63 1010.29 1009.94 1009.53 1009.04 1008.47 1007.80 1007.06 1006.31 1005.59 1004.96 1004.48 1004.19 1004.12 1004.27 1004.62 1005.13 1005.76 1006.43 1007.09
1019.59 1019.77 1019.91 1020.00 1020.03 1020.02 1019.94 1019.79 1019.57 1019.25 1018.84 1018.34 1017.74 1017.04 1016.27 1015.44 1014.58 1013.72 1012.89 1012.13 1011.44 1010.87 1010.39 1010.02 1009.71 1009.43 1009.15 1008.82 1008.41 1007.90 1007.30 1006.62 1005.89 1005.18 1004.53 1004.01 1003.66 1003.53 1003.61 1003.91 1004.38 1004.98 1005.66 1006.36
1020.23 1020.37 1020.41 1020.37 1020.24 1020.05 1019.78 1019.45 1019.06 1018.60 1018.07 1017.47 1016.80 1016.06 1015.27 1014.43 1013.57 1012.72 1011.90 1011.14 1010.47 1009.90 1009.44 1009.07 1008.78 1008.53 1008.28 1007.99 1007.63 1007.18 1006.62 1005.98 1005.30 1004.61 1003.97 1003.44 1003.07 1002.89 1002.94 1003.19 1003.64 1004.23 1004.92 1005.65
1020.68 1020.75 1020.69 1020.51 1020.23 1019.86 1019.42 1018.92 1018.38 1017.80 1017.17 1016.51 1015.81 1015.07 1014.28 1013.47 1012.64 1011.81 1011.01 1010.27 1009.61 1009.03 1008.56 1008.18 1007.87 1007.61 1007.36 1007.08 1006.74 1006.32 1005.80 1005.21 1004.56 1003.91 1003.29 1002.78 1002.41 1002.22 1002.25 1002.49 1002.92 1003.51 1004.21 1004.98
Thickness
5771 5754 5744 5755 5764 5767 5769 5766 5763 5775 5794 5788 5779 5783 5794 5805 5805 5798 5793 5791 5791 5793 5797 5800 5799 5796 5790 5784 5778 5773 5768 5764 5762 5759 5756 5755 5754 5756 5756 5757 5758 5757 5756 5756
5749 5744 5765 5776 5781 5777 5770 5759 5758 5768 5785 5781 5772 5773 5785 5792 5793 5793 5786 5782 5783 5783 5786 5789 5789 5786 5781 5775 5771 5766 5762 5759 5755 5751 5749 5747 5746 5747 5748 5749 5749 5749 5749 5749
5743 5760 5782 5780 5773 5767 5762 5755 5754 5756 5766 5770 5763 5751 5761 5774 5783 5786 5782 5779 5778 5778 5777 5778 5778 5776 5772 5768 5764 5761 5757 5753 5750 5746 5741 5738 5736 5736 5736 5738 5739 5742 5742 5742
5759 5776 5778 5771 5766 5765 5747 5764 5764 5759 5744 5732 5743 5716 5744 5757 5761 5767 5769 5769 5770 5773 5772 5771 5770 5768 5765 5763 5761 5756 5751 5746 5742 5739 5734 5728 5724 5722 5725 5728 5731 5734 5735 5735
5755 5769 5767 5760 5765 5767 5758 5768 5761 5754 5740 5726 5730 5717 5726 5746 5744 5749 5756 5760 5763 5767 5767 5766 5767 5765 5762 5759 5753 5748 5743 5738 5734 5730 5727 5722 5718 5717 5719 5721 5723 5726 5728 5729
5764 5776 5772 5768 5774 5773 5767 5756 5744 5732 5717 5702 5720 5714 5711 5727 5736 5741 5749 5755 5759 5763 5765 5764 5763 5759 5754 5750 5745 5740 5733 5728 5724 5721 5717 5713 5710 5709 5710 5711 5713 5716 5719 5721
5744 5758 5769 5774 5760 5760 5752 5718 5693 5691 5684 5692 5716 5710 5708 5735 5745 5746 5747 5751 5757 5760 5758 5755 5752 5748 5744 5741 5737 5731 5725 5719 5715 5711 5707 5703 5701 5699 5698 5699 5701 5704 5707 5710
5725 5724 5755 5765 5757 5745 5746 5721 5689 5678 5675 5686 5705 5704 5716 5743 5750 5751 5751 5751 5752 5751 5750 5748 5746 5742 5738 5735 5730 5724 5718 5712 5707 5702 5698 5694 5691 5688 5686 5686 5687 5690 5693 5697
5724 5726 5758 5768 5771 5758 5741 5726 5718 5692 5692 5686 5693 5711 5725 5739 5741 5743 5744 5744 5744 5746 5746 5744 5742 5738 5735 5731 5725 5719 5712 5706 5700 5695 5690 5685 5681 5678 5675 5675 5675 5676 5679 5684
5741 5727 5743 5758 5764 5760 5751 5735 5708 5694 5678 5671 5687 5698 5702 5722 5728 5736 5738 5739 5741 5742 5741 5740 5737 5735 5732 5727 5722 5716 5709 5702 5696 5690 5685 5680 5674 5670 5667 5665 5664 5664 5666 5669
5746 5722 5725 5735 5734 5733 5737 5732 5714 5693 5683 5669 5665 5685 5725 5726 5731 5731 5733 5735 5733 5733 5732 5731 5730 5729 5727 5722 5717 5710 5704 5697 5691 5685 5679 5674 5668 5663 5659 5656 5654 5654 5655 5657
5743 5717 5707 5719 5739 5748 5740 5730 5710 5689 5686 5681 5671 5686 5727 5727 5726 5725 5723 5724 5723 5722 5721 5721 5721 5719 5717 5714 5710 5704 5699 5693 5688 5682 5675 5669 5663 5657 5652 5648 5646 5646 5646 5647
5741 5713 5693 5698 5712 5729 5729 5731 5723 5704 5689 5678 5671 5684 5711 5714 5713 5713 5712 5710 5709 5708 5707 5706 5705 5704 5704 5703 5701 5699 5694 5690 5685 5678 5671 5664 5658 5652 5647 5643 5640 5638 5638 5638
5745 5715 5698 5691 5697 5710 5714 5722 5726 5710 5686 5682 5686 5684 5688 5693 5695 5696 5695 5695 5696 5694 5692 5690 5688 5688 5688 5688 5690 5690 5689 5686 5680 5674 5667 5660 5654 5649 5644 5639 5635 5632 5631 5630
5737 5715 5715 5712 5718 5721 5718 5720 5723 5713 5706 5690 5683 5675 5674 5677 5678 5678 5680 5680 5680 5678 5677 5674 5671 5670 5671 5672 5674 5677 5680 5680 5676 5670 5663 5657 5652 5646 5640 5636 5631 5628 5625 5624
5732 5719 5719 5713 5720 5719 5713 5712 5712 5699 5694 5686 5675 5663 5664 5666 5666 5662 5660 5660 5659 5658 5658 5658 5658 5657 5657 5658 5660 5664 5669 5672 5671 5666 5661 5655 5648 5642 5637 5633 5628 5623 5620 5618
5725 5715 5705 5694 5708 5707 5691 5694 5687 5674 5667 5667 5654 5647 5648 5648 5647 5643 5641 5641 5639 5639 5639 5639 5639 5640 5640 5642 5645 5649 5657 5663 5663 5661 5658 5651 5645 5639 5634 5630 5625 5619 5615 5613
5723 5708 5693 5687 5692 5680 5683 5689 5679 5658 5645 5644 5639 5633 5630 5629 5632 5632 5629 5624 5622 5621 5620 5620 5620 5622 5624 5627 5632 5638 5646 5652 5655 5655 5652 5647 5641 5636 5631 5626 5621 5617 5612 5609
5730 5708 5687 5674 5671 5678 5677 5671 5662 5653 5631 5627 5622 5620 5619 5619 5624 5626 5620 5612 5607 5605 5604 5603 5603 5604 5606 5609 5614 5621 5629 5638 5643 5646 5646 5643 5639 5633 5627 5623 5619 5614 5610 5606
5717 5704 5685 5672 5663 5654 5654 5656 5657 5649 5618 5612 5610 5607 5605 5604 5600 5604 5606 5599 5595 5592 5589 5588 5588 5587 5587 5590 5594 5600 5608 5617 5624 5631 5636 5638 5635 5630 5625 5621 5617 5612 5608 5604
5691 5683 5674 5663 5654 5647 5631 5638 5645 5626 5609 5600 5597 5593 5588 5580 5576 5579 5579 5576 5573 5571 5569 5567 5566 5565 5566 5568 5572 5577 5585 5594 5604 5613 5621 5628 5629 5626 5624 5619 5615 5610 5605 5600
5666 5658 5653 5647 5641 5630 5617 5616 5605 5594 5594 5589 5584 5578 5572 5566 5564 5562 5560 5557 5555 5551 5549 5545 5542 5541 5540 5541 5544 5552 5561 5572 5584 5595 5606 5616 5620 5621 5620 5616 5612 5607 5602 5597
5653 5645 5639 5628 5617 5606 5605 5599 5594 5587 5580 5575 5568 5562 5556 5551 5549 5547 5544 5541 5538 5535 5532 5528 5524 5522 5521 5520 5522 5528 5540 5552 5563 5575 5589 5601 5609 5613 5615 5613 5609 5604 5600 5596
5642 5641 5628 5614 5604 5600 5596 5591 5585 5578 5570 5564 5556 5549 5541 5535 5534 5531 5529 5527 5524 5522 5520 5517 5513 5510 5509 5506 5507 5512 5521 5533 5544 5558 5573 5586 5596 5603 5607 5609 5609 5605 5600 5596
5626 5624 5615 5601 5595 5589 5585 5580 5575 5568 5560 5552 5545 5537 5528 5522 5520 5519 5518 5517 5517 5517 5515 5511 5506 5503 5502 5500 5499 5502 5509 5518 5530 5544 5559 5573 5585 5595 5600 5603 5606 5607 5605 5602
5613 5604 5595 5586 5583 5574 5571 5570 5563 5552 5544 5536 5528 5523 5518 5510 5506 5507 5508 5509 5510 5510 5509 5505 5501 5498 5497 5496 5495 5496 5501 5508 5518 5532 5547 5561 5574 5587 5594 5598 5599 5602 5603 5600